DW8086 Weather Reports


Display with metric or nautical units.
time (UTC)temp
F
wind
direction
speed
MPH
gust
MPH
rain 1hr
in
rain 24hr
in
rain mn
in
humidity
%
barometer
mb
20260503203517 60 270 7.0 11.0 0.00 0.00 0.00 36 1011.3
20260503202537 60 225 3.0 6.0 0.00 0.00 0.00 36 1011.4
20260503201517 60 225 7.0 12.0 0.00 0.00 0.00 38 1011.4
20260503200537 60 315 3.0 7.0 0.00 0.00 0.00 37 1011.4
20260503195516 60 45 3.0 6.0 0.00 0.00 0.00 36 1011.7
20260503194517 59 225 3.0 6.0 0.00 0.00 0.00 41 1011.6
20260503193537 59 203 8.0 13.0 0.00 0.00 0.00 38 1011.7
20260503192537 59 270 5.0 9.0 0.00 0.00 0.00 40 1011.9
20260503191517 59 293 5.0 10.0 0.00 0.00 0.00 40 1012.0
20260503190517 58 203 1.0 4.0 0.00 0.00 0.00 48 1012.0
20260503185517 58 180 3.0 5.0 0.00 0.00 0.00 41 1012.1
20260503184517 58 315 3.0 7.0 0.00 0.00 0.00 41 1012.2
20260503183517 58 315 3.0 11.0 0.00 0.00 0.00 42 1012.3
20260503182517 57 338 3.0 5.0 0.00 0.00 0.00 46 1012.4
20260503181517 55 225 3.0 8.0 0.00 0.00 0.00 47 1012.5
20260503180517 56 270 6.0 11.0 0.00 0.00 0.00 44 1012.5
20260503175537 56 203 3.0 5.0 0.00 0.00 0.00 45 1012.6
20260503174517 55 248 7.0 10.0 0.00 0.00 0.00 44 1012.5
20260503173517 54 23 3.0 7.0 0.00 0.00 0.00 46 1012.7
20260503172517 55 0 2.0 5.0 0.00 0.00 0.00 46 1012.6
20260503171517 55 270 5.0 8.0 0.00 0.00 0.00 46 1012.6
20260503170517 54 293 4.0 10.0 0.00 0.00 0.00 46 1012.5
20260503150517 54 270 2.0 3.0 0.00 0.00 0.00 49 1013.0
20260503131117 49 270 3.0 7.0 0.00 0.00 0.00 61 1013.1
20260503130117 49 225 1.0 3.0 0.00 0.00 0.00 59 1013.0
20260503120117 47 293 2.0 3.0 0.00 0.00 0.00 61 1012.7
20260503110137 47 0.0 1.0 0.00 0.00 0.00 60 1012.1
20260503100117 47 338 1.0 2.0 0.00 0.00 0.00 59 1011.1
20260503090117 46 0.0 0.0 0.00 0.00 0.00 59 1010.7
20260503081117 49 0.0 1.0 0.00 0.00 0.00 53 1010.6
20260503080117 49 0.0 2.0 0.00 0.00 0.00 52 1010.6
20260503072137 49 0.0 1.0 0.00 0.00 0.00 52 1010.5
20260503071117 50 0 1.0 2.0 0.00 0.00 0.00 52 1010.4
20260503070117 50 338 1.0 4.0 0.00 0.00 0.00 52 1010.5
20260503060117 51 338 1.0 3.0 0.00 0.00 0.00 50 1010.6
20260503055115 51 45 1.0 3.0 0.00 0.00 0.00 50 1010.9
20260503054115 51 0.0 2.0 0.00 0.00 0.00 51 1010.9
20260503053115 51 0.0 2.0 0.00 0.00 0.00 52 1010.7
20260503052135 52 0.0 1.0 0.00 0.00 0.00 52 1010.8
20260503051115 52 0.0 1.0 0.00 0.00 0.00 51 1010.9
20260503050155 51 0.0 1.0 0.00 0.00 0.00 53 1011.2
20260503045115 51 0.0 0.0 0.00 0.00 0.00 54 1011.3
20260503044135 51 0.0 3.0 0.00 0.00 0.00 55 1011.4
20260503043115 51 0.0 0.0 0.00 0.00 0.00 56 1011.5
20260503042115 52 0.0 0.0 0.00 0.00 0.00 55 1011.4
20260503041135 52 0.0 0.0 0.00 0.00 0.00 55 1011.5
20260503040135 52 0.0 1.0 0.00 0.00 0.00 55 1011.4
20260503035116 52 0.0 0.0 0.00 0.00 0.00 55 1011.4
20260503034116 52 0.0 0.0 0.00 0.00 0.00 55 1011.4
20260503033136 53 0.0 0.0 0.00 0.00 0.00 54 1011.2
20260503032116 53 0.0 1.0 0.00 0.00 0.00 54 1011.4
20260503031116 53 0.0 0.0 0.00 0.00 0.00 56 1011.2
20260503030116 53 0.0 0.0 0.00 0.00 0.00 54 1011.5
20260503024116 53 0.0 0.0 0.00 0.00 0.00 54 1011.3
20260503023116 53 0.0 0.0 0.00 0.00 0.00 54 1011.4
20260503022116 53 0.0 1.0 0.00 0.00 0.00 54 1011.4
20260503021156 53 0.0 0.0 0.00 0.00 0.00 53 1011.4
20260503020116 53 0.0 0.0 0.00 0.00 0.00 52 1011.4
20260503015116 53 0.0 0.0 0.00 0.00 0.00 53 1011.5
20260503014116 53 0.0 0.0 0.00 0.00 0.00 53 1011.3
20260503013116 53 0.0 0.0 0.00 0.00 0.00 52 1011.3
20260503012136 54 0.0 0.0 0.00 0.00 0.00 52 1011.4
20260503011116 54 0.0 0.0 0.00 0.00 0.00 52 1011.3
20260503010136 54 0.0 1.0 0.00 0.00 0.00 51 1011.1
20260503005116 54 0.0 1.0 0.00 0.00 0.00 52 1010.9
20260503004116 55 0.0 1.0 0.00 0.00 0.00 52 1010.9
20260503003116 55 0.0 0.0 0.00 0.00 0.00 50 1010.8
20260503002116 56 0.0 0.0 0.00 0.00 0.00 49 1010.8
20260503001116 56 0.0 0.0 0.00 0.00 0.00 48 1010.7
20260503000116 57 0.0 1.0 0.00 0.00 0.00 47 1010.7
20260502235116 57 0.0 0.0 0.00 0.00 0.00 47 1010.6
20260502234116 58 270 1.0 2.0 0.00 0.00 0.00 46 1010.7
20260502233116 59 0.0 0.0 0.00 0.00 0.00 45 1010.8
20260502232117 59 0.0 1.0 0.00 0.00 0.00 43 1010.7
20260502231116 60 0.0 1.0 0.00 0.00 0.00 43 1010.7
20260502230116 60 270 2.0 3.0 0.00 0.00 0.00 43 1010.7
20260502225116 60 270 2.0 3.0 0.00 0.00 0.00 43 1010.6
20260502224116 60 0.0 0.0 0.00 0.00 0.00 43 1010.6
20260502223116 60 293 2.0 3.0 0.00 0.00 0.00 45 1010.6
20260502222116 60 248 1.0 3.0 0.00 0.00 0.00 44 1010.5
20260502221116 60 270 1.0 1.0 0.00 0.00 0.00 45 1010.3
20260502220116 61 315 1.0 3.0 0.00 0.00 0.00 44 1010.4
20260502215116 61 315 1.0 3.0 0.00 0.00 0.00 43 1010.6
20260502214116 61 270 2.0 4.0 0.00 0.00 0.00 41 1010.5
20260502213116 61 270 1.0 3.0 0.00 0.00 0.00 42 1010.5
20260502212116 62 180 1.0 3.0 0.00 0.00 0.00 42 1010.4
20260502211136 61 315 1.0 3.0 0.00 0.00 0.00 45 1010.3
20260502210116 61 0.0 1.0 0.00 0.00 0.00 48 1010.1
20260502205116 61 225 4.0 6.0 0.00 0.00 0.00 44 1010.1